Location: Unspecified
(47.9110°N, 14.3980°E)
Time: 02:48:39
(UTC+00:00)

Cosmos 2322 Rocket - Pass Details

Date: 06 August 2020
Orbit: 831 x 852 km, 71.0° (Epoch: 25 September)

Event Time Altitude Azimuth Distance (km) Brightness Sun altitude
Rises 22:26:58 0° 329° (NNW) 3,417 6.5 -25.1°
Reaches altitude 10° 22:29:27 10° 324° (NW) 2,481 5.5 -25.1°
Maximum altitude 22:34:58 52° 250° (WSW) 1,045 2.5 -25.3°
Enters shadow 22:35:27 51° 232° (SW) 1,063 2.5 -25.3°
